Weather History for Clinton, MO

Change the Weather History Date:

Wednesday, April 3, 2013

  Actual Average (KSZL) Record (KSZL)
Temperature  
Mean Temperature 42 °F -  
Max Temperature 51 °F 60 °F 84 °F (2011)
Min Temperature 33 °F 40 °F 28 °F (2002)
Degree Days  
Heating Degree Days 23    
Moisture  
Dew Point 27 °F    
Average Humidity 57    
Maximum Humidity 81    
Minimum Humidity 35    
Precipitation  
Precipitation 0.00 in - - ()
Sea Level Pressure  
Sea Level Pressure 30.29 in    
Wind  
Wind Speed 6 mph (NE)    
Max Wind Speed 15 mph    
Max Gust Speed 22 mph    
Visibility 10 miles    
Events      
Averages and records for this station are not official NWS values.
T = Trace of Precipitation, MM = Missing Value Source: NWS Daily Summary

Daily Weather History Graph

Daily Weather History Graph

Search for Another Location

Airport:

Trip Planner

Search our weather history database for the weather conditions in past years. The results will help you decide how hot, cold, wet, or windy it might be!

Date:

Astronomy

Apr. 03, 2013 Rise Set
Actual Time 6:56 AM CDT 7:40 PM CDT
Civil Twilight 6:29 AM CDT 8:06 PM CDT
Nautical Twilight 5:57 AM CDT 8:38 PM CDT
Astronomical Twilight 5:25 AM CDT 9:11 PM CDT
Moon 2:32 AM CDT (4/3) 12:58 PM CDT (4/3)
Length of Visible Light 13h 37m
Length of Day
12h 43m
Last Quarter, 44% of the Moon is Illuminated
Apr 3
Last Quarter
Apr 10
New
Apr 18
First Quarter
Apr 25
Full
May 2
Last Quarter

Hourly Weather History & Observations

Time (CDT) Temp. Windchill Dew Point Humidity Pressure Visibility Wind Dir Wind Speed Gust Speed Precip Events Conditions
12:15 AM 37.4 °F 33.8 °F 28.4 °F 70% 30.29 in 10.0 mi ENE 4.6 mph - N/A   Clear
12:35 AM 37.4 °F - 28.4 °F 70% 30.30 in 10.0 mi Calm Calm - N/A   Clear
12:55 AM 37.4 °F - 26.6 °F 65% 30.29 in 10.0 mi Calm Calm - N/A   Clear
1:15 AM 35.6 °F - 28.4 °F 75% 30.28 in 10.0 mi Calm Calm - N/A   Clear
1:35 AM 35.6 °F 30.7 °F 28.4 °F 75% 30.28 in 10.0 mi NE 5.8 mph - N/A   Clear
1:55 AM 37.4 °F 34.9 °F 26.6 °F 65% 30.28 in 10.0 mi ENE 3.5 mph - N/A   Clear
2:15 AM 35.6 °F 31.7 °F 26.6 °F 70% 30.29 in 10.0 mi ENE 4.6 mph - N/A   Clear
2:35 AM 35.6 °F - 28.4 °F 75% 30.29 in 10.0 mi Calm Calm - N/A   Clear
2:55 AM 35.6 °F - 26.6 °F 70% 30.29 in 10.0 mi Calm Calm - N/A   Clear
3:15 AM 35.6 °F - 26.6 °F 70% 30.29 in 10.0 mi Calm Calm - N/A   Clear
3:35 AM 35.6 °F 30.7 °F 26.6 °F 70% 30.28 in 10.0 mi NE 5.8 mph - N/A   Clear
3:55 AM 33.8 °F - 26.6 °F 75% 30.29 in 10.0 mi Calm Calm - N/A   Clear
4:15 AM 33.8 °F - 26.6 °F 75% 30.28 in 10.0 mi Calm Calm - N/A   Clear
4:35 AM 33.8 °F - 28.4 °F 81% 30.29 in 10.0 mi Calm Calm - N/A   Clear
4:55 AM 33.8 °F 27.0 °F 26.6 °F 75% 30.29 in 10.0 mi NE 8.1 mph - N/A   Clear
5:15 AM 33.8 °F 27.0 °F 26.6 °F 75% 30.29 in 10.0 mi NE 8.1 mph - N/A   Clear
5:35 AM 33.8 °F 27.7 °F 26.6 °F 75% 30.31 in 10.0 mi ENE 6.9 mph - N/A   Clear
5:55 AM 33.8 °F 27.7 °F 26.6 °F 75% 30.32 in 10.0 mi NE 6.9 mph - N/A   Clear
6:15 AM 33.8 °F 27.0 °F 26.6 °F 75% 30.33 in 10.0 mi ENE 8.1 mph - N/A   Clear
6:55 AM 33.8 °F 26.4 °F 26.6 °F 75% 30.34 in 10.0 mi ENE 9.2 mph - N/A   Clear
7:15 AM 33.8 °F 25.8 °F 26.6 °F 75% 30.34 in 9.0 mi ENE 10.4 mph - N/A   Clear
7:35 AM 33.8 °F 26.4 °F 26.6 °F 75% 30.35 in 9.0 mi ENE 9.2 mph - N/A   Clear
7:55 AM 33.8 °F 27.0 °F 26.6 °F 75% 30.36 in 10.0 mi ENE 8.1 mph - N/A   Clear
8:15 AM 35.6 °F 28.0 °F 26.6 °F 70% 30.37 in 10.0 mi East 10.4 mph - N/A   Clear
8:35 AM 35.6 °F 28.0 °F 26.6 °F 70% 30.36 in 10.0 mi East 10.4 mph - N/A   Clear
8:55 AM 37.4 °F 29.3 °F 26.6 °F 65% 30.35 in 10.0 mi East 12.7 mph 17.3 mph N/A   Clear
9:15 AM 39.2 °F 31.6 °F 26.6 °F 61% 30.36 in 10.0 mi ENE 12.7 mph - N/A   Clear
9:35 AM 39.2 °F 33.0 °F 26.6 °F 61% 30.37 in 10.0 mi East 9.2 mph - N/A   Clear
9:55 AM 42.8 °F 37.0 °F 26.6 °F 53% 30.37 in 10.0 mi East 10.4 mph - N/A   Clear
10:15 AM 42.8 °F 36.6 °F 26.6 °F 53% 30.35 in 10.0 mi ENE 11.5 mph - N/A   Clear
10:35 AM 44.6 °F 39.2 °F 26.6 °F 49% 30.35 in 10.0 mi ENE 10.4 mph - N/A   Clear
10:55 AM 44.6 °F 40.2 °F 26.6 °F 49% 30.36 in 10.0 mi ENE 8.1 mph - N/A   Clear
11:15 AM 46.4 °F 41.1 °F 26.6 °F 46% 30.35 in 10.0 mi ENE 11.5 mph 18.4 mph N/A   Clear
11:35 AM 46.4 °F 40.7 °F 26.6 °F 46% 30.34 in 10.0 mi ESE 12.7 mph 18.4 mph N/A   Clear
11:55 AM 48.2 °F - 26.6 °F 43% 30.33 in 10.0 mi East 12.7 mph 16.1 mph N/A   Clear
12:15 PM 48.2 °F - 26.6 °F 43% 30.33 in 10.0 mi ENE 9.2 mph - N/A   Clear
12:35 PM 48.2 °F - 26.6 °F 43% 30.32 in 10.0 mi ENE 12.7 mph 21.9 mph N/A   Clear
12:55 PM 48.2 °F - 28.4 °F 46% 30.32 in 10.0 mi East 11.5 mph 19.6 mph N/A   Clear
1:15 PM 48.2 °F - 28.4 °F 46% 30.31 in 10.0 mi ENE 15.0 mph - N/A   Clear
1:35 PM 50.0 °F - 28.4 °F 43% 30.30 in 10.0 mi ENE 11.5 mph - N/A   Clear
1:55 PM 50.0 °F - 26.6 °F 40% 30.30 in 10.0 mi NE 12.7 mph - N/A   Clear
2:15 PM 51.8 °F - 26.6 °F 38% 30.29 in 10.0 mi NNE 12.7 mph - N/A   Partly Cloudy
2:55 PM 50.0 °F - 24.8 °F 37% 30.27 in 10.0 mi NE 10.4 mph 19.6 mph N/A   Clear
3:15 PM 50.0 °F - 23.0 °F 35% 30.27 in 10.0 mi NNE 12.7 mph 16.1 mph N/A   Clear
3:35 PM 50.0 °F - 24.8 °F 37% 30.26 in 10.0 mi NE 11.5 mph - N/A   Clear
3:55 PM 50.0 °F - 26.6 °F 40% 30.26 in 10.0 mi NE 11.5 mph - N/A   Clear
4:15 PM 50.0 °F - 23.0 °F 35% 30.27 in 10.0 mi NNE 11.5 mph - N/A   Clear
4:35 PM 50.0 °F - 24.8 °F 37% 30.26 in 10.0 mi NE 12.7 mph 16.1 mph N/A   Clear
4:55 PM 50.0 °F - 24.8 °F 37% 30.26 in 10.0 mi NE 13.8 mph - N/A   Clear
5:15 PM 50.0 °F - 24.8 °F 37% 30.25 in 10.0 mi NNE 10.4 mph - N/A   Clear
5:35 PM 50.0 °F - 23.0 °F 35% 30.25 in 10.0 mi NNE 10.4 mph - N/A   Clear
5:55 PM 48.2 °F - 23.0 °F 37% 30.25 in 10.0 mi NE 10.4 mph - N/A   Clear
6:15 PM 50.0 °F - 23.0 °F 35% 30.24 in 10.0 mi NE 11.5 mph - N/A   Clear
6:35 PM 48.2 °F - 23.0 °F 37% 30.24 in 10.0 mi NE 11.5 mph - N/A   Clear
6:55 PM 48.2 °F - 24.8 °F 40% 30.23 in 10.0 mi NE 9.2 mph - N/A   Clear
7:15 PM 48.2 °F - 23.0 °F 37% 30.23 in 10.0 mi NE 8.1 mph - N/A   Clear
7:35 PM 46.4 °F 44.3 °F 24.8 °F 43% 30.23 in 10.0 mi NE 4.6 mph - N/A   Clear
7:55 PM 46.4 °F 43.5 °F 26.6 °F 46% 30.23 in 10.0 mi NE 5.8 mph - N/A   Clear
8:15 PM 46.4 °F 45.2 °F 28.4 °F 50% 30.23 in 10.0 mi NE 3.5 mph - N/A   Clear
8:35 PM 44.6 °F 41.4 °F 28.4 °F 53% 30.23 in 10.0 mi NE 5.8 mph - N/A   Clear
8:55 PM 44.6 °F 42.2 °F 28.4 °F 53% 30.23 in 10.0 mi NNE 4.6 mph - N/A   Clear
9:15 PM 44.6 °F 41.4 °F 28.4 °F 53% 30.24 in 10.0 mi NE 5.8 mph - N/A   Clear
9:35 PM 42.8 °F 39.3 °F 28.4 °F 57% 30.24 in 10.0 mi NE 5.8 mph - N/A   Clear
10:15 PM 42.8 °F 41.1 °F 28.4 °F 57% 30.23 in 10.0 mi NE 3.5 mph - N/A   Clear
10:35 PM 41.0 °F - 28.4 °F 61% 30.24 in 10.0 mi Calm Calm - N/A   Clear
10:55 PM 39.2 °F 37.0 °F 28.4 °F 65% 30.24 in 10.0 mi NNE 3.5 mph - N/A   Clear
11:15 PM 39.2 °F 35.0 °F 28.4 °F 65% 30.23 in 10.0 mi NNE 5.8 mph - N/A   Clear
11:35 PM 37.4 °F 32.1 °F 28.4 °F 70% 30.23 in 10.0 mi NNE 6.9 mph - N/A   Clear
11:55 PM 37.4 °F - 28.4 °F 70% 30.23 in 10.0 mi Calm Calm - N/A   Clear